CW8838 Douglas Park VA US current weather conditions

sailwx.info

Dewpoint 19.6° C

Last reported at 2020-Jul-14 07:03 UTC.
Time now 2020-Jul-14 07:27 UTC

Location: N 38°51' W 077°06'.
View on Google Maps.

See reports from other nearby stations

  
Tides and Currents Weather Stations Pressure Air Temp Water Temp Dewpoint Dewpoint Depression Visibility Wind Speed Wind Dir Waves Ship Positions
date/time (UTC)wind fromknots sea level pressurealtimeterstation pressurevisibilityair tempwater tempwave heightnotes
2020-Jul-14 07:08
2020-Jul-14 07:03
2020-Jul-14 06:58
2020-Jul-14 06:53
2020-Jul-14 06:48
2020-Jul-14 06:43
2020-Jul-14 06:38
2020-Jul-14 06:33
2020-Jul-14 06:28
2020-Jul-14 06:23
2020-Jul-14 06:18
2020-Jul-14 06:13
2020-Jul-14 06:08
2020-Jul-14 06:03
2020-Jul-14 05:58
2020-Jul-14 05:53
2020-Jul-14 05:48
2020-Jul-14 05:43
2020-Jul-14 05:38
2020-Jul-14 05:33
2020-Jul-14 05:28
2020-Jul-14 05:23
2020-Jul-14 05:18
2020-Jul-14 05:13 342 21.1
2020-Jul-14 05:08 342 21.1
2020-Jul-14 05:03 342 21.1
2020-Jul-14 04:58 342 21.7
2020-Jul-14 04:53 342 21.7
2020-Jul-14 04:48 342 21.7
2020-Jul-14 04:43 342 21.7
2020-Jul-14 04:38 342 21.7
2020-Jul-14 04:33 342 21.7
2020-Jul-14 04:28 342 21.7
2020-Jul-14 04:23 342 21.7
2020-Jul-14 04:18 342 22.2
2020-Jul-14 04:13 342 22.2
2020-Jul-14 04:08 342 22.2
2020-Jul-14 04:03 342 22.2
2020-Jul-14 03:58 342 22.2
2020-Jul-14 03:53 342 0 gusting 0 22.2
2020-Jul-14 03:48 342 21.7
2020-Jul-14 03:43 342 21.7
2020-Jul-14 03:38 342 21.7
2020-Jul-14 03:33 342 21.7
2020-Jul-14 03:28 342 21.7
2020-Jul-14 03:23 342 22.2
2020-Jul-14 03:18 342 22.2
2020-Jul-14 03:13 342 22.2
2020-Jul-14 03:08 342 22.2
2020-Jul-14 03:03 342 22.2
2020-Jul-14 02:58 342 22.8
2020-Jul-14 02:53 342 22.8
2020-Jul-14 02:48 342 0 gusting 0 22.2
2020-Jul-14 02:43 342 22.2
2020-Jul-14 02:38 342 22.2
2020-Jul-14 02:33 342 22.2
2020-Jul-14 02:28 342 0 gusting 0 22.2
2020-Jul-14 02:23 342 22.2
2020-Jul-14 02:18 342 0 gusting 1 22.2
2020-Jul-14 02:13 342 0 gusting 1 22.2
2020-Jul-14 02:08 342 22.8
2020-Jul-14 02:03 342 0 gusting 2 23.3
2020-Jul-14 01:58 344 0 gusting 1 23.9
2020-Jul-14 01:53 344 24.4
2020-Jul-14 01:48 344 0 gusting 1 26.1
2020-Jul-14 01:43 344 27.2
2020-Jul-14 01:38 344 0 gusting 1 27.2
2020-Jul-14 01:33 344 27.2
2020-Jul-14 01:28 344 27.2
2020-Jul-14 01:23 338 26.7
2020-Jul-14 01:18 338 26.7
2020-Jul-14 01:13 338 26.7
2020-Jul-14 01:08 338 26.7
2020-Jul-14 01:03 338 26.7
2020-Jul-14 00:58 338 27.2
2020-Jul-14 00:53 338 27.2
2020-Jul-14 00:48 338 0 gusting 1 27.2
2020-Jul-14 00:43 338 0 gusting 1 27.2
2020-Jul-14 00:38 338 0 gusting 0 27.2
2020-Jul-14 00:33 338 27.2
2020-Jul-14 00:28 338 0 gusting 1 27.2
2020-Jul-14 00:23 338 0 gusting 1 27.2
2020-Jul-14 00:18 341 27.2
2020-Jul-14 00:13 341 0 gusting 5 27.8
2020-Jul-14 00:08 022 27.8
2020-Jul-14 00:03 316 0 gusting 2 27.8
2020-Jul-13 23:58 299 27.8
2020-Jul-13 23:53 360 28.3
2020-Jul-13 23:38 355 0 gusting 3 28.3
2020-Jul-13 23:33 103 1 gusting 3 28.9
2020-Jul-13 23:28 196 0 gusting 1 28.9
2020-Jul-13 23:23 296 0 gusting 2 28.9
2020-Jul-13 23:18 037 0 gusting 3 28.9
2020-Jul-13 23:13 075 0 gusting 3 29.4
2020-Jul-13 23:08 081 0 gusting 2 29.4
2020-Jul-13 23:03 075 0 gusting 2 29.4
2020-Jul-13 22:58 360 29.4
2020-Jul-13 22:53 067 0 gusting 1 30.0
2020-Jul-13 22:48 061 0 gusting 1 30.0
2020-Jul-13 22:43 360 30.0
2020-Jul-13 22:38 294 0 gusting 2 30.0
2020-Jul-13 22:33 077 30.0
2020-Jul-13 22:28 077 0 gusting 3 29.4
2020-Jul-13 22:23 077 0 gusting 3 29.4
2020-Jul-13 22:18 073 0 gusting 5 30.0
2020-Jul-13 22:13 032 0 gusting 5 30.0
2020-Jul-13 22:08 073 0 gusting 2 30.0
2020-Jul-13 22:04 071 0 gusting 5 30.6
2020-Jul-13 21:49 297 2 gusting 5 31.1
2020-Jul-13 21:43 281 2 gusting 5 31.1
2020-Jul-13 21:38 291 0 gusting 3 31.1
2020-Jul-13 21:33 309 1 gusting 3 31.1
2020-Jul-13 21:28 338 0 gusting 3 31.7
2020-Jul-13 21:23 291 0 gusting 2 31.1
2020-Jul-13 21:18 074 0 gusting 2 31.1
2020-Jul-13 21:13 274 0 gusting 5 31.1
2020-Jul-13 21:08 035 0 gusting 5 31.1
2020-Jul-13 21:03 333 0 gusting 4 31.7
2020-Jul-13 20:58 238 0 gusting 4 31.7
2020-Jul-13 20:53 102 1 gusting 7 31.7
2020-Jul-13 20:48 278 0 gusting 7 32.2
2020-Jul-13 20:43 246 0 gusting 4 31.7
2020-Jul-13 20:38 279 0 gusting 2 31.1
2020-Jul-13 20:33 224 0 gusting 2 30.6
2020-Jul-13 20:28 331 0 gusting 2 31.1
2020-Jul-13 20:23 337 0 gusting 2 31.7
2020-Jul-13 20:18 181 31.7
2020-Jul-13 20:13 298 1 gusting 6 31.7
2020-Jul-13 20:08 288 1 gusting 6 32.2
2020-Jul-13 20:03 221 2 gusting 5 32.2
2020-Jul-13 19:58 216 1 gusting 5 32.2
2020-Jul-13 19:53 271 1 gusting 4 32.2
2020-Jul-13 19:48 319 0 gusting 2 31.7
2020-Jul-13 19:43 183 0 gusting 4 31.7
2020-Jul-13 19:38 315 0 gusting 4 31.7
2020-Jul-13 19:33 246 0 gusting 6 32.2
2020-Jul-13 19:28 282 2 gusting 6 31.1
2020-Jul-13 19:23 050 1 gusting 5 31.7
2020-Jul-13 19:18 219 31.7
2020-Jul-13 19:13 231 1 gusting 7 31.7
2020-Jul-13 19:08 324 3 gusting 6 31.7
2020-Jul-13 19:03 111 1 gusting 7 31.1
2020-Jul-13 18:58 291 1 gusting 8 31.7
2020-Jul-13 18:53 071 0 gusting 4 31.1
2020-Jul-13 18:48 275 2 gusting 4 31.1
2020-Jul-13 18:43 318 0 gusting 4 31.1
2020-Jul-13 18:38 306 1 gusting 4 31.1
2020-Jul-13 18:33 126 0 gusting 3 31.1
2020-Jul-13 18:28 250 1 gusting 7 31.1
2020-Jul-13 18:23 270 2 gusting 7 31.1
2020-Jul-13 18:18 275 1 gusting 6 31.1
2020-Jul-13 18:13 290 2 gusting 6 30.6
2020-Jul-13 18:08 275 2 gusting 7 30.6
2020-Jul-13 18:03 306 3 gusting 7 30.0
2020-Jul-13 17:58 306 3 gusting 6 30.0
2020-Jul-13 17:53 257 1 gusting 6 30.0
2020-Jul-13 17:48 258 0 gusting 6 29.4
2020-Jul-13 17:43 223 1 gusting 4 28.9
2020-Jul-13 17:38 315 1 gusting 4 29.4
2020-Jul-13 17:33 272 0 gusting 3 28.3
2020-Jul-13 17:28 184 0 gusting 3 28.3
2020-Jul-13 17:23 261 1 gusting 4 28.3
2020-Jul-13 17:18 286 0 gusting 4 28.3
2020-Jul-13 17:13 277 1 gusting 5 28.3
2020-Jul-13 17:08 271 1 gusting 4 28.3
2020-Jul-13 17:03 258 0 gusting 5 28.3
2020-Jul-13 16:58 269 1 gusting 5 27.8
2020-Jul-13 16:53 279 1 gusting 3 27.8
2020-Jul-13 16:48 102 0 gusting 3 27.2
2020-Jul-13 16:43 326 0 gusting 4 27.8
2020-Jul-13 16:38 015 0 gusting 6 27.8
2020-Jul-13 16:33 294 3 gusting 6 27.8
2020-Jul-13 16:28 304 2 gusting 7 27.8
2020-Jul-13 16:23 325 3 gusting 7 27.2
2020-Jul-13 16:18 285 0 gusting 6 27.2
2020-Jul-13 16:13 323 0 gusting 6 27.2
2020-Jul-13 16:08 262 0 gusting 4 27.2
2020-Jul-13 16:03 263 1 gusting 4 26.7
2020-Jul-13 15:58 261 1 gusting 3 26.7
2020-Jul-13 15:53 130 1 gusting 3 26.7
2020-Jul-13 15:48 305 1 gusting 5 26.7
2020-Jul-13 15:43 086 2 gusting 7 26.1
2020-Jul-13 15:38 315 0 gusting 9 26.1
2020-Jul-13 15:33 296 1 gusting 4 25.6
2020-Jul-13 15:28 319 1 gusting 4 25.0
2020-Jul-13 15:23 009 1 gusting 8 25.0
2020-Jul-13 15:18 323 1 gusting 8 25.0
2020-Jul-13 15:13 096 2 gusting 6 25.0
2020-Jul-13 15:08 288 1 gusting 4 24.4
2020-Jul-13 15:03 055 1 gusting 6 24.4
2020-Jul-13 14:58 259 1 gusting 6 24.4
2020-Jul-13 14:53 304 1 gusting 6 24.4
2020-Jul-13 14:48 065 1 gusting 5 24.4
2020-Jul-13 14:43 278 1 gusting 3 24.4
2020-Jul-13 14:38 257 1 gusting 3 24.4
2020-Jul-13 14:33 080 0 gusting 4 23.9
2020-Jul-13 14:28 294 1 gusting 4 23.9
2020-Jul-13 14:23 309 1 gusting 5 23.9
2020-Jul-13 14:18 323 1 gusting 6 23.9
2020-Jul-13 14:13 300 1 gusting 4 23.9
2020-Jul-13 14:08 090 0 gusting 3 23.9
2020-Jul-13 14:03 240 23.3
2020-Jul-13 13:58 221 0 gusting 3 23.3
2020-Jul-13 13:53 091 23.3
2020-Jul-13 13:48 093 0 gusting 3 23.3
2020-Jul-13 13:43 355 0 gusting 3 23.3
2020-Jul-13 13:38 296 1 gusting 3 23.3
2020-Jul-13 13:33 105 0 gusting 2 22.8
2020-Jul-13 13:28 080 0 gusting 2 22.8
2020-Jul-13 13:23 331 0 gusting 4 22.8
2020-Jul-13 13:18 297 0 gusting 4 22.8
2020-Jul-13 13:13 306 2 gusting 4 22.8
2020-Jul-13 13:08 298 0 gusting 2 22.8
2020-Jul-13 13:03 306 22.8
2020-Jul-13 12:58 306 0 gusting 4 22.8
2020-Jul-13 12:53 315 2 gusting 4 22.2
2020-Jul-13 12:48 281 1 gusting 3 22.2
2020-Jul-13 12:43 276 0 gusting 6 22.2
2020-Jul-13 12:38 251 3 gusting 6 22.2
2020-Jul-13 12:33 269 0 gusting 3 22.2
2020-Jul-13 12:28 309 1 gusting 3 22.2
2020-Jul-13 12:23 296 1 gusting 3 21.7
2020-Jul-13 12:18 302 0 gusting 4 21.7
2020-Jul-13 12:13 296 1 gusting 4 21.7
2020-Jul-13 12:08 265 21.7
2020-Jul-13 12:03 290 21.7
2020-Jul-13 11:58 260 0 gusting 3 21.7
2020-Jul-13 11:53 248 0 gusting 3 21.7
2020-Jul-13 11:48 254 0 gusting 5 21.1
2020-Jul-13 11:43 258 0 gusting 5 21.1
2020-Jul-13 11:38 281 0 gusting 6 21.1
2020-Jul-13 11:33 302 1 gusting 5 21.1
2020-Jul-13 11:28 307 0 gusting 5 21.1
2020-Jul-13 11:23 290 0 gusting 3 21.1
2020-Jul-13 11:18 298 0 gusting 3 21.1
2020-Jul-13 11:13 280 0 gusting 1 21.1
2020-Jul-13 11:08 306 21.1
2020-Jul-13 11:03 306 0 gusting 2 21.1
2020-Jul-13 10:58 289 0 gusting 3 21.1
2020-Jul-13 10:53 289 1 gusting 3 21.1
2020-Jul-13 10:48 287 1 gusting 3 21.1
2020-Jul-13 10:43 296 1 gusting 3 21.1
2020-Jul-13 10:38 300 0 gusting 2 21.1
2020-Jul-13 10:33 298 0 gusting 2 21.1
2020-Jul-13 10:28 297 1 gusting 2 21.1
2020-Jul-13 10:23 297 21.1
2020-Jul-13 10:18 297 21.1
2020-Jul-13 10:13 297 21.1
2020-Jul-13 10:08 297 21.1
2020-Jul-13 10:03 297 21.1
2020-Jul-13 09:58 297 21.1
2020-Jul-13 09:53 297 21.1
2020-Jul-13 09:48 297 21.1
2020-Jul-13 09:43 297 21.1
2020-Jul-13 09:38 297 0 gusting 1 21.1
2020-Jul-13 09:33 297 21.1
2020-Jul-13 09:28 297 21.1
2020-Jul-13 09:23 310 21.1
2020-Jul-13 09:18 310 21.1
2020-Jul-13 09:13 310 0 gusting 2 21.1
2020-Jul-13 09:08 310 0 gusting 2 21.7
2020-Jul-13 09:03 310 21.7
2020-Jul-13 08:58 310 0 gusting 1 21.7
2020-Jul-13 08:53 310 21.7
2020-Jul-13 08:48 310 0 gusting 0 21.7
2020-Jul-13 08:44 310 21.7
2020-Jul-13 08:38 310 21.7
2020-Jul-13 08:33 287 0 gusting 4 21.7
2020-Jul-13 08:28 317 0 gusting 4 21.7
2020-Jul-13 08:23 294 0 gusting 4 21.7
2020-Jul-13 08:18 300 1 gusting 4 21.7
2020-Jul-13 08:13 288 0 gusting 3 21.7
2020-Jul-13 08:08 287 1 gusting 3 21.7
2020-Jul-13 08:03 297 0 gusting 2 21.7
2020-Jul-13 07:58 301 0 gusting 2 22.2
2020-Jul-13 07:53 301 0 gusting 2 22.2
2020-Jul-13 07:48 302 0 gusting 1 22.2
2020-Jul-13 07:43 302 0 gusting 2 22.2
2020-Jul-13 07:38 302 22.2
2020-Jul-13 07:33 302 22.2
2020-Jul-13 07:28 290 0 gusting 3 22.2
2020-Jul-13 07:23 305 0 gusting 2 22.2
2020-Jul-13 07:18 300 1 gusting 4 22.2
2020-Jul-13 07:13 324 22.2
2020-Jul-13 07:08 005 1 gusting 6 22.2
2020-Jul-13 07:03 300 0 gusting 6 22.2
2020-Jul-13 06:58 306 2 gusting 6 22.2
2020-Jul-13 06:53 312 1 gusting 6 22.2
2020-Jul-13 06:48 273 1 gusting 5 22.2
2020-Jul-13 06:43 308 0 gusting 4 22.2
2020-Jul-13 06:38 304 1 gusting 4 22.8
2020-Jul-13 06:33 305 1 gusting 4 22.8
2020-Jul-13 06:28 281 1 gusting 4 22.8
2020-Jul-13 06:23 292 1 gusting 4 22.8
2020-Jul-13 06:18 302 1 gusting 4 22.8
2020-Jul-13 06:13 286 1 gusting 5 22.8
2020-Jul-13 06:08 281 1 gusting 5 22.8
2020-Jul-13 06:03 293 2 gusting 4 22.8
2020-Jul-13 05:58 266 0 gusting 4 22.8
2020-Jul-13 05:53 313 1 gusting 3 22.8
2020-Jul-13 05:48 275 1 gusting 3 22.8
2020-Jul-13 05:43 298 1 gusting 4 22.8
2020-Jul-13 05:38 304 1 gusting 5 22.8
2020-Jul-13 05:33 294 1 gusting 5 22.8
2020-Jul-13 05:28 285 1 gusting 4 22.8
2020-Jul-13 05:23 280 0 gusting 6 22.8
2020-Jul-13 05:18 270 1 gusting 6 22.8
2020-Jul-13 05:13 311 1 gusting 6 22.8
2020-Jul-13 05:08 292 2 gusting 6 22.8
2020-Jul-13 05:03 308 2 gusting 5 22.8
2020-Jul-13 04:58 285 2 gusting 3 23.3
2020-Jul-13 04:53 295 0 gusting 5 23.3
2020-Jul-13 04:48 315 1 gusting 5 23.3
2020-Jul-13 04:43 282 1 gusting 6 23.3
2020-Jul-13 04:38 299 2 gusting 6 23.3
2020-Jul-13 04:33 305 2 gusting 5 23.3
2020-Jul-13 04:28 298 0 gusting 4 23.3
2020-Jul-13 04:23 279 1 gusting 2 23.3
2020-Jul-13 04:18 306 1 gusting 3 23.3
2020-Jul-13 04:13 309 1 gusting 3 23.3
2020-Jul-13 04:08 302 1 gusting 2 23.3
2020-Jul-13 04:03 300 0 gusting 2 23.3
2020-Jul-13 03:58 300 0 gusting 3 23.3
2020-Jul-13 03:53 294 1 gusting 4 23.3
2020-Jul-13 03:48 296 1 gusting 4 23.3
2020-Jul-13 03:43 293 1 gusting 3 23.3
2020-Jul-13 03:38 306 1 gusting 2 23.9
2020-Jul-13 03:33 306 0 gusting 2 23.9
2020-Jul-13 03:28 286 1 gusting 2 23.9
2020-Jul-13 03:23 223 0 gusting 1 23.9
2020-Jul-13 03:18 223 23.9
2020-Jul-13 03:13 223 0 gusting 1 23.9
2020-Jul-13 03:08 223 0 gusting 1 23.9
2020-Jul-13 03:03 223 0 gusting 1 23.9
2020-Jul-13 02:58 223 0 gusting 2 23.9
2020-Jul-13 02:53 223 0 gusting 2 23.9
2020-Jul-13 02:48 229 0 gusting 2 23.9
2020-Jul-13 02:43 229 0 gusting 1 23.9
2020-Jul-13 02:38 229 0 gusting 4 24.4
2020-Jul-13 02:33 207 1 gusting 4 24.4
2020-Jul-13 02:28 225 1 gusting 4 24.4
2020-Jul-13 02:23 231 1 gusting 4 24.4
2020-Jul-13 02:18 245 1 gusting 6 25.0
2020-Jul-13 02:13 256 2 gusting 6 25.0
2020-Jul-13 02:08 250 3 gusting 7 25.6
2020-Jul-13 02:03 254 3 gusting 7 25.6
2020-Jul-13 01:58 252 2 gusting 6 25.6
2020-Jul-13 01:53 292 3 gusting 6 25.6
2020-Jul-13 01:48 252 3 gusting 6 25.6
2020-Jul-13 01:43 255 2 gusting 7 26.1
2020-Jul-13 01:38 257 2 gusting 7 26.1
2020-Jul-13 01:33 254 1 gusting 3 26.1
2020-Jul-13 01:28 257 1 gusting 6 26.1
2020-Jul-13 01:23 253 2 gusting 6 26.1
2020-Jul-13 01:18 254 2 gusting 5 26.1
2020-Jul-13 01:13 216 1 gusting 6 26.1
2020-Jul-13 01:08 303 2 gusting 6 26.1
2020-Jul-13 01:03 273 1 gusting 5 26.1
2020-Jul-13 00:58 290 2 gusting 5 26.1
2020-Jul-13 00:53 290 2 gusting 4 26.1
2020-Jul-13 00:48 284 0 gusting 3 26.1
2020-Jul-13 00:43 286 1 gusting 3 26.1
2020-Jul-13 00:38 321 1 gusting 3 26.1
2020-Jul-13 00:33 278 0 gusting 2 26.1
2020-Jul-13 00:28 292 0 gusting 3 26.7
2020-Jul-13 00:23 279 1 gusting 3 26.7
2020-Jul-13 00:18 276 0 gusting 3 26.7
2020-Jul-13 00:13 288 2 gusting 4 26.7
2020-Jul-13 00:08 281 2 gusting 4 26.7
2020-Jul-13 00:03 313 1 gusting 6 26.7
2020-Jul-12 23:58 317 3 gusting 7 26.7
2020-Jul-12 23:53 306 2 gusting 7 26.7
2020-Jul-12 23:48 316 3 gusting 7 27.2
2020-Jul-12 23:43 296 3 gusting 8 27.8
2020-Jul-12 23:38 255 3 gusting 13 28.3
2020-Jul-12 23:33 296 6 gusting 13 28.3
2020-Jul-12 23:28 309 4 gusting 12 28.9
2020-Jul-12 23:23 209 2 gusting 5 28.9
2020-Jul-12 23:18 205 3 gusting 5 28.9
2020-Jul-12 23:13 204 1 gusting 5 28.9
2020-Jul-12 23:08 223 1 gusting 5 28.9
2020-Jul-12 23:03 207 2 gusting 5 28.9
2020-Jul-12 22:58 190 2 gusting 5 28.9
2020-Jul-12 22:53 192 1 gusting 6 28.9
2020-Jul-12 22:48 213 1 gusting 6 28.9
2020-Jul-12 22:43 157 2 gusting 5 28.9
2020-Jul-12 22:38 210 1 gusting 3 28.3
2020-Jul-12 22:33 203 1 gusting 5 28.9
2020-Jul-12 22:28 207 1 gusting 6 28.9
2020-Jul-12 22:23 197 1 gusting 5 28.9
2020-Jul-12 22:18 208 1 gusting 6 28.9
2020-Jul-12 22:13 152 1 gusting 6 28.9
2020-Jul-12 22:08 213 2 gusting 3 28.9
2020-Jul-12 22:03 170 1 gusting 7 29.4
2020-Jul-12 21:58 192 2 gusting 7 29.4
2020-Jul-12 21:53 146 1 gusting 6 29.4
2020-Jul-12 21:43 204 2 gusting 8 29.4
2020-Jul-12 21:38 216 3 gusting 9 28.9
2020-Jul-12 21:33 206 4 gusting 9 28.9
2020-Jul-12 21:28 197 2 gusting 6 28.9
2020-Jul-12 21:23 192 2 gusting 6 28.9
2020-Jul-12 21:18 210 1 gusting 4 28.3
2020-Jul-12 21:13 184 0 gusting 5 28.3
2020-Jul-12 21:08 182 0 gusting 2 28.3
2020-Jul-12 21:03 159 0 gusting 3 28.3
2020-Jul-12 20:58 126 0 gusting 6 28.3
2020-Jul-12 20:53 130 1 gusting 6 28.3
2020-Jul-12 20:48 111 0 gusting 6 27.8
2020-Jul-12 20:43 133 1 gusting 6 27.8
2020-Jul-12 20:38 128 1 gusting 3 27.8
2020-Jul-12 20:33 206 0 gusting 6 27.8
2020-Jul-12 20:28 181 0 gusting 7 28.3
2020-Jul-12 20:23 138 0 gusting 7 28.3
2020-Jul-12 20:18 123 1 gusting 3 28.3
2020-Jul-12 20:13 100 0 gusting 6 28.9
2020-Jul-12 20:08 136 0 gusting 6 28.9
2020-Jul-12 20:03 150 1 gusting 7 28.9
2020-Jul-12 19:58 184 3 gusting 7 29.4
2020-Jul-12 19:53 198 1 gusting 6 29.4
2020-Jul-12 19:48 122 2 gusting 6 30.0
2020-Jul-12 19:43 093 1 gusting 4 30.6
2020-Jul-12 19:38 121 0 gusting 4 30.0
2020-Jul-12 19:33 169 1 gusting 6 29.4
2020-Jul-12 19:28 149 1 gusting 6 28.9
2020-Jul-12 19:23 157 1 gusting 4 29.4
2020-Jul-12 19:18 146 0 gusting 7 29.4
2020-Jul-12 19:13 167 2 gusting 8 30.0
2020-Jul-12 19:08 190 4 gusting 8 30.6
2020-Jul-12 19:03 138 3 gusting 6 30.6
2020-Jul-12 18:58 207 3 gusting 6 30.0
2020-Jul-12 18:53 222 2 gusting 6 29.4
2020-Jul-12 18:48 209 2 gusting 5 28.9
2020-Jul-12 18:43 205 2 gusting 5 28.9
2020-Jul-12 18:38 137 1 gusting 2 28.9
2020-Jul-12 18:33 211 0 gusting 3 28.9
2020-Jul-12 18:28 202 1 gusting 6 28.9
2020-Jul-12 18:23 220 3 gusting 6 28.9
2020-Jul-12 18:18 188 1 gusting 5 29.4
2020-Jul-12 18:13 205 0 gusting 5 29.4
2020-Jul-12 18:08 198 2 gusting 6 30.0
2020-Jul-12 18:03 211 2 gusting 6 30.0
2020-Jul-12 17:58 159 1 gusting 7 30.6
2020-Jul-12 17:53 175 3 gusting 7 31.1
2020-Jul-12 17:48 245 0 gusting 5 31.1
2020-Jul-12 17:43 213 1 gusting 5 30.6
2020-Jul-12 17:38 235 1 gusting 6 31.1
2020-Jul-12 17:33 218 2 gusting 6 31.1
2020-Jul-12 17:28 196 1 gusting 5 31.1
2020-Jul-12 17:23 213 0 gusting 5 31.1
2020-Jul-12 17:18 191 2 gusting 6 31.1
2020-Jul-12 17:13 184 2 gusting 6 31.1
2020-Jul-12 17:08 237 3 gusting 6 31.1
2020-Jul-12 17:03 214 0 gusting 6 31.1
2020-Jul-12 16:58 133 1 gusting 6 30.0
2020-Jul-12 16:53 165 1 gusting 6 30.0
2020-Jul-12 16:48 196 2 gusting 6 30.0
2020-Jul-12 16:43 197 3 gusting 6 30.0
2020-Jul-12 16:38 223 3 gusting 5 30.0
2020-Jul-12 16:33 117 2 gusting 7 29.4
2020-Jul-12 16:28 182 2 gusting 7 30.0
2020-Jul-12 16:23 215 2 gusting 6 30.0
2020-Jul-12 16:18 209 2 gusting 6 29.4
2020-Jul-12 16:13 198 0 gusting 6 29.4
2020-Jul-12 16:08 198 2 gusting 6 29.4
2020-Jul-12 16:03 185 3 gusting 6 29.4
2020-Jul-12 15:58 249 2 gusting 5 28.9
2020-Jul-12 15:53 219 1 gusting 6 28.9
2020-Jul-12 15:48 205 2 gusting 6 28.9
2020-Jul-12 15:43 203 1 gusting 5 28.9
2020-Jul-12 15:38 120 0 gusting 3 28.3
2020-Jul-12 15:33 159 1 gusting 6 28.3
2020-Jul-12 15:28 214 2 gusting 6 28.9
2020-Jul-12 15:23 182 1 gusting 5 28.3
2020-Jul-12 15:18 198 0 gusting 2 27.8
2020-Jul-12 15:13 289 1 gusting 2 27.8
2020-Jul-12 15:08 272 0 gusting 2 27.8
2020-Jul-12 15:03 309 0 gusting 2 27.8
2020-Jul-12 14:58 227 0 gusting 2 27.8
2020-Jul-12 14:53 221 0 gusting 3 27.8
2020-Jul-12 14:48 209 0 gusting 4 27.8
2020-Jul-12 14:43 269 1 gusting 6 27.8
2020-Jul-12 14:38 206 1 gusting 6 27.2
2020-Jul-12 14:33 141 2 gusting 6 27.2
2020-Jul-12 14:28 221 1 gusting 3 27.2
2020-Jul-12 14:23 268 0 gusting 3 27.2
2020-Jul-12 14:18 225 0 gusting 3 27.2
2020-Jul-12 14:13 217 0 gusting 3 26.7
2020-Jul-12 14:08 219 0 gusting 2 26.7
2020-Jul-12 14:03 293 0 gusting 2 26.7
2020-Jul-12 13:58 279 1 gusting 3 26.7
2020-Jul-12 13:53 253 1 gusting 3 26.1
2020-Jul-12 13:48 210 0 gusting 3 26.1
2020-Jul-12 13:43 250 0 gusting 2 26.1
2020-Jul-12 13:38 242 25.6
2020-Jul-12 13:33 308 1 gusting 3 25.6
2020-Jul-12 13:28 262 1 gusting 2 25.6
2020-Jul-12 13:23 254 0 gusting 2 25.0
2020-Jul-12 13:18 229 25.0
2020-Jul-12 13:13 229 0 gusting 2 25.0
2020-Jul-12 13:08 208 0 gusting 3 24.4
2020-Jul-12 13:03 208 2 gusting 3 24.4
2020-Jul-12 12:58 248 0 gusting 2 24.4
2020-Jul-12 12:53 254 0 gusting 1 24.4
2020-Jul-12 12:48 254 0 gusting 2 23.9
2020-Jul-12 12:43 254 0 gusting 2 23.9
2020-Jul-12 12:38 254 0 gusting 1 23.3
2020-Jul-12 12:33 254 23.3
2020-Jul-12 12:28 254 0 gusting 1 23.3
2020-Jul-12 12:23 254 23.3
2020-Jul-12 12:18 254 0 gusting 2 22.8
2020-Jul-12 12:13 298 22.8
2020-Jul-12 12:08 298 22.8
2020-Jul-12 12:03 298 22.8
2020-Jul-12 11:58 298 22.8
2020-Jul-12 11:53 298 22.2
2020-Jul-12 11:48 298 22.2
2020-Jul-12 11:43 298 22.2
2020-Jul-12 11:38 298 21.7
2020-Jul-12 11:33 298 21.7
2020-Jul-12 11:28 298 21.7
2020-Jul-12 11:23 298 21.7
2020-Jul-12 11:18 298 21.7
2020-Jul-12 11:13 298 21.7
2020-Jul-12 11:08 298 21.7
2020-Jul-12 11:03 298 21.1
2020-Jul-12 10:58 298 21.1
2020-Jul-12 10:53 298 21.1
2020-Jul-12 10:48 298 21.1
2020-Jul-12 10:43 298 21.1
2020-Jul-12 10:38 298 21.1
2020-Jul-12 10:33 298 21.1
2020-Jul-12 10:28 298 21.7
2020-Jul-12 10:23 298 21.7
2020-Jul-12 10:18 298 21.7
2020-Jul-12 10:13 298 21.7
2020-Jul-12 10:08 298 0 gusting 2 21.7
2020-Jul-12 10:03 298 1 gusting 2 21.7
2020-Jul-12 09:58 298 0 gusting 2 21.7
2020-Jul-12 09:53 298 0 gusting 2 21.7
2020-Jul-12 09:48 298 0 gusting 1 21.7
2020-Jul-12 09:43 298 0 gusting 1 21.7
2020-Jul-12 09:38 298 0 gusting 2 21.7
2020-Jul-12 09:33 298 0 gusting 2 21.7
2020-Jul-12 09:28 298 0 gusting 1 21.7
2020-Jul-12 09:23 298 21.7
2020-Jul-12 09:18 298 21.7
2020-Jul-12 09:13 298 0 gusting 1 21.7
2020-Jul-12 09:08 298 0 gusting 1 21.7
2020-Jul-12 09:03 298 21.7
2020-Jul-12 08:58 298 21.7
2020-Jul-12 08:53 298 0 gusting 3 22.2
2020-Jul-12 08:48 298 0 gusting 3 22.2
2020-Jul-12 08:43 298 0 gusting 3 22.2
2020-Jul-12 08:38 298 0 gusting 2 22.2
2020-Jul-12 08:33 298 0 gusting 2 22.2
2020-Jul-12 08:28 298 0 gusting 1 22.2
2020-Jul-12 08:23 298 0 gusting 2 22.2
2020-Jul-12 08:18 298 0 gusting 2 22.2
2020-Jul-12 08:13 298 0 gusting 1 22.2
2020-Jul-12 08:08 298 0 gusting 2 22.2
2020-Jul-12 08:03 298 0 gusting 3 22.2
2020-Jul-12 07:58 298 1 gusting 2 22.2
2020-Jul-12 07:53 298 0 gusting 1 22.2
2020-Jul-12 07:48 298 0 gusting 2 22.8
2020-Jul-12 07:43 298 0 gusting 2 22.8
2020-Jul-12 07:38 300 0 gusting 3 22.8
2020-Jul-12 07:33 281 1 gusting 2 22.8
2020-Jul-12 07:28 279 0 gusting 2 22.8
2020-Jul-12 07:23 300 1 gusting 3 22.8
2020-Jul-12 07:18 300 1 gusting 3 22.8
2020-Jul-12 07:13 303 1 gusting 3 23.3
2020-Jul-12 07:08 289 1 gusting 2 23.3
2020-Jul-12 07:03 273 0 gusting 1 23.3